When you browse on this site, cookies collect data to enhance your experience and personalize the content and advertising you see.
Visit our Privacy Policy to learn more. By continuing to use the site, you agree to this use of cookies and data.
  • In United Kingdom
  • List of Countries
  • For 7 days
  • Water Temperature
  • Satellite Maps
  • Weather Map
  • Weather Widgets
  • user-avatar
    Login

    Hourly Weather Prutz

    Today, 11 December, Tuesday

    Time Temperature Precipitation Wind Pressure Humidity
    00:00 -7°C° 1 mm 3 mps 631 mmHg 94%
    01:00 -7°C° 0 mm 3 mps 631 mmHg 96%
    02:00 -6°C° 0.6 mm 2 mps 631 mmHg 96%
    03:00 -7°C° 0.6 mm 2 mps 631 mmHg 95%
    04:00 -7°C° 0.6 mm 2 mps 631 mmHg 95%
    05:00 -7°C° 0.4 mm 2 mps 631 mmHg 95%
    06:00 -8°C° 0.4 mm 2 mps 632 mmHg 95%
    07:00 -8°C° 0 mm 2 mps 631 mmHg 96%
    08:00 -8°C° 0.3 mm 2 mps 632 mmHg 93%
    09:00 -7°C° 0.3 mm 2 mps 632 mmHg 91%
    10:00 -7°C° 0.3 mm 2 mps 632 mmHg 89%
    11:00 -7°C° 0.1 mm 2 mps 632 mmHg 86%
    12:00 -6°C° 0.1 mm 2 mps 632 mmHg 83%
    13:00 -6°C° 0.1 mm 2 mps 632 mmHg 80%
    14:00 -7°C° 0.1 mm 2 mps 632 mmHg 83%
    15:00 -8°C° 0.1 mm 2 mps 631 mmHg 86%
    16:00 -8°C° 0.1 mm 1 mps 631 mmHg 89%
    17:00 -9°C° 0 mm 1 mps 631 mmHg 89%
    18:00 -11°C° 0 mm 1 mps 630 mmHg 89%
    19:00 -14°C° 0 mm 2 mps 630 mmHg 90%
    20:00 -14°C° 0 mm 2 mps 630 mmHg 88%
    21:00 -14°C° 0 mm 2 mps 630 mmHg 86%
    22:00 -15°C° 0 mm 2 mps 630 mmHg 84%
    23:00 -13°C° 0 mm 1 mps 630 mmHg 83%

    Tomorrow, 12 December, Wednesday

    Time Temperature Precipitation Wind Pressure Humidity
    00:00 -13°C° 0 mm 1 mps 630 mmHg 83%
    01:00 -13°C° 0 mm 1 mps 630 mmHg 83%
    02:00 -13°C° 0 mm 1 mps 630 mmHg 83%
    03:00 -15°C° 0 mm 2 mps 630 mmHg 83%
    04:00 -15°C° 0 mm 2 mps 630 mmHg 83%
    05:00 -15°C° 0 mm 2 mps 630 mmHg 83%
    06:00 -15°C° 0 mm 2 mps 630 mmHg 83%
    07:00 -15°C° 0 mm 2 mps 630 mmHg 83%
    08:00 -12°C° 0 mm 1 mps 630 mmHg 81%
    09:00 -10°C° 0 mm 1 mps 631 mmHg 80%
    10:00 -8°C° 0 mm 1 mps 632 mmHg 78%
    11:00 -7°C° 0 mm 1 mps 632 mmHg 76%
    12:00 -6°C° 0 mm 1 mps 632 mmHg 74%
    13:00 -3°C° 0 mm 1 mps 632 mmHg 72%
    14:00 -6°C° 0 mm 1 mps 631 mmHg 77%
    15:00 -7°C° 0 mm 1 mps 630 mmHg 82%
    16:00 -8°C° 0 mm 1 mps 630 mmHg 88%
    17:00 -9°C° 0 mm 1 mps 629 mmHg 87%
    18:00 -11°C° 0 mm 1 mps 629 mmHg 87%
    19:00 -12°C° 0 mm 1 mps 629 mmHg 86%
    20:00 -12°C° 0 mm 1 mps 629 mmHg 84%
    21:00 -12°C° 0 mm 1 mps 628 mmHg 82%
    22:00 -13°C° 0 mm 1 mps 628 mmHg 79%
    23:00 -15°C° 0 mm 2 mps 628 mmHg 77%

    Day after tomorrow, 13 December, Thursday

    Time Temperature Precipitation Wind Pressure Humidity
    00:00 -15°C° 0 mm 2 mps 628 mmHg 75%
    01:00 -15°C° 0 mm 2 mps 627 mmHg 73%
    02:00 -15°C° 0 mm 2 mps 627 mmHg 73%
    03:00 -15°C° 0 mm 2 mps 627 mmHg 72%
    04:00 -15°C° 0 mm 2 mps 626 mmHg 72%
    05:00 -16°C° 0 mm 2 mps 626 mmHg 72%
    06:00 -16°C° 0 mm 2 mps 626 mmHg 72%
    07:00 -16°C° 0 mm 2 mps 626 mmHg 73%
    08:00 -15°C° 0 mm 2 mps 626 mmHg 73%
    09:00 -13°C° 0 mm 2 mps 626 mmHg 73%
    10:00 -12°C° 0 mm 2 mps 627 mmHg 73%
    11:00 -9°C° 0 mm 2 mps 627 mmHg 72%
    12:00 -8°C° 0 mm 2 mps 627 mmHg 71%
    13:00 -6°C° 0 mm 2 mps 627 mmHg 70%
    14:00 -7°C° 0 mm 2 mps 626 mmHg 74%
    15:00 -9°C° 0 mm 2 mps 626 mmHg 78%
    16:00 -10°C° 0 mm 2 mps 625 mmHg 82%
    17:00 -12°C° 0 mm 2 mps 625 mmHg 81%
    18:00 -13°C° 0 mm 2 mps 625 mmHg 80%
    19:00 -15°C° 0 mm 2 mps 625 mmHg 79%
    20:00 -15°C° 0 mm 2 mps 625 mmHg 79%
    21:00 -15°C° 0 mm 2 mps 626 mmHg 78%
    22:00 -15°C° 0 mm 2 mps 626 mmHg 78%
    23:00 -15°C° 0 mm 2 mps 626 mmHg 78%

    14 December, Friday

    Time Temperature Precipitation Wind Pressure Humidity
    00:00 -15°C° 0 mm 2 mps 626 mmHg 78%
    01:00 -15°C° 0 mm 2 mps 626 mmHg 78%
    02:00 -14°C° 0 mm 2 mps 626 mmHg 77%
    03:00 -14°C° 0 mm 2 mps 626 mmHg 77%
    04:00 -14°C° 0 mm 2 mps 626 mmHg 76%
    05:00 -14°C° 0 mm 2 mps 626 mmHg 76%
    06:00 -14°C° 0 mm 2 mps 626 mmHg 75%
    07:00 -14°C° 0 mm 2 mps 626 mmHg 74%
    08:00 -10°C° 0 mm 1 mps 627 mmHg 74%
    09:00 -9°C° 0 mm 1 mps 627 mmHg 73%
    10:00 -7°C° 0 mm 1 mps 628 mmHg 72%
    11:00 -6°C° 0 mm 1 mps 628 mmHg 69%
    12:00 -3°C° 0 mm 1 mps 628 mmHg 66%
    13:00 -3°C° 0 mm 0 mps 629 mmHg 63%
    14:00 -5°C° 0 mm 0 mps 628 mmHg 71%
    15:00 -7°C° 0 mm 0 mps 628 mmHg 78%
    16:00 -8°C° 0 mm 0 mps 627 mmHg 85%
    17:00 -9°C° 0 mm 1 mps 627 mmHg 85%
    18:00 -11°C° 0 mm 1 mps 627 mmHg 85%
    19:00 -12°C° 0 mm 1 mps 627 mmHg 84%
    20:00 -12°C° 0 mm 1 mps 628 mmHg 81%
    21:00 -12°C° 0 mm 1 mps 628 mmHg 78%
    22:00 -12°C° 0 mm 1 mps 628 mmHg 74%
    23:00 -13°C° 0 mm 1 mps 628 mmHg 72%

    15 December, Saturday

    Time Temperature Precipitation Wind Pressure Humidity
    00:00 -13°C° 0 mm 1 mps 628 mmHg 70%
    01:00 -13°C° 0 mm 1 mps 628 mmHg 68%
    02:00 -13°C° 0 mm 1 mps 629 mmHg 70%
    03:00 -13°C° 0 mm 1 mps 629 mmHg 73%
    04:00 -16°C° 0 mm 2 mps 629 mmHg 75%
    05:00 -16°C° 0 mm 2 mps 629 mmHg 77%
    06:00 -16°C° 0 mm 2 mps 630 mmHg 80%
    07:00 -16°C° 0 mm 2 mps 630 mmHg 82%
    08:00 -14°C° 0 mm 2 mps 631 mmHg 82%
    09:00 -13°C° 0 mm 2 mps 632 mmHg 82%
    10:00 -9°C° 0 mm 1 mps 633 mmHg 82%
    11:00 -8°C° 0 mm 1 mps 633 mmHg 78%
    12:00 -7°C° 0 mm 1 mps 633 mmHg 75%
    13:00 -4°C° 0 mm 1 mps 633 mmHg 71%
    14:00 -7°C° 0 mm 1 mps 633 mmHg 76%
    15:00 -8°C° 0 mm 1 mps 632 mmHg 82%
    16:00 -10°C° 0 mm 1 mps 632 mmHg 87%
    17:00 -11°C° 0 mm 1 mps 632 mmHg 83%
    18:00 -14°C° 0 mm 2 mps 632 mmHg 78%
    19:00 -14°C° 0 mm 2 mps 633 mmHg 74%
    20:00 -14°C° 0 mm 2 mps 633 mmHg 67%
    21:00 -14°C° 0 mm 2 mps 633 mmHg 61%
    22:00 -14°C° 0 mm 2 mps 633 mmHg 54%
    23:00 -13°C° 0 mm 2 mps 633 mmHg 52%

    16 December, Sunday

    Time Temperature Precipitation Wind Pressure Humidity
    00:00 -13°C° 0 mm 2 mps 633 mmHg 49%
    01:00 -12°C° 0 mm 2 mps 633 mmHg 46%
    02:00 -12°C° 0 mm 2 mps 633 mmHg 45%
    03:00 -12°C° 0 mm 2 mps 633 mmHg 43%
    04:00 -10°C° 0 mm 2 mps 633 mmHg 41%
    05:00 -10°C° 0 mm 2 mps 633 mmHg 40%
    06:00 -9°C° 0 mm 2 mps 634 mmHg 39%
    07:00 -9°C° 0 mm 2 mps 634 mmHg 38%
    08:00 -7°C° 0 mm 2 mps 634 mmHg 42%
    09:00 -3°C° 0 mm 1 mps 635 mmHg 45%
    10:00 -1°C° 0 mm 1 mps 636 mmHg 49%
    11:00 0°C° 0 mm 1 mps 636 mmHg 54%
    12:00 +2°C° 0 mm 1 mps 636 mmHg 59%
    13:00 +4°C° 0 mm 1 mps 636 mmHg 64%
    14:00 +3°C° 0 mm 1 mps 636 mmHg 60%
    15:00 +2°C° 0 mm 1 mps 635 mmHg 56%
    16:00 +1°C° 0 mm 1 mps 635 mmHg 52%
    17:00 +1°C° 0 mm 1 mps 635 mmHg 51%
    18:00 0°C° 0 mm 1 mps 635 mmHg 50%
    19:00 0°C° 0 mm 1 mps 635 mmHg 49%
    20:00 -2°C° 0 mm 2 mps 635 mmHg 49%
    21:00 -2°C° 0 mm 2 mps 634 mmHg 50%
    22:00 -2°C° 0 mm 2 mps 634 mmHg 50%
    23:00 -2°C° 0 mm 2 mps 634 mmHg 53%
    Show more